Cloud_Cover
0 0 0 0 0 0 0 0 0 0 0 0 0 0 0 0 0 0 0 0 0 0 0 0 0 0 3 100 55 100 100 100 100 100 100 56 93 17 66 2 0 21 0 0 0
0 0 0 0 0 0 0 0 0 0 0 0 0 0 0 0 0 0 0 0 0 0 0 0 0 0 30 66 65 86 100 100 100 100 97 27 3 21 25 20 48 0 0 0 0
0 0 0 0 0 0 0 0 0 0 0 0 0 0 0 0 0 0 0 0 0 0 0 0 0 0 0 3 8 100 100 100 100 100 74 54 0 5 0 0 0 0 0 0 0
0 0 0 0 0 0 0 0 0 0 0 0 0 0 0 0 0 0 0 0 0 0 0 0 0 0 0 12 25 100 98 100 100 92 72 38 0 0 3 3 0 0 0 0 0
0 0 0 0 0 0 0 0 0 0 0 0 0 8 0 0 0 0 0 0 0 0 0 0 0 0 0 5 5 12 74 97 63 5 100 79 5 0 2 34 3 0 0 0 0
0 0 0 0 0 0 0 0 0 0 0 0 6 84 2 0 0 0 0 0 0 0 0 0 0 0 0 4 4 80 14 92 5 46 0 99 26 5 5 0 0 0 0 0 44
0 0 0 0 0 0 0 0 0 0 0 0 32 26 0 0 0 0 0 0 0 0 0 0 0 0 0 0 1 7 11 100 77 66 70 100 75 8 5 0 0 0 0 1 0
0 0 0 0 0 0 0 0 0 0 0 0 74 2 0 0 0 0 0 0 0 0 0 0 0 0 0 0 0 1 4 14 98 99 78 2 12 10 100 95 2 0 4 0 0
0 0 0 0 0 0 0 0 0 0 0 8 16 0 0 0 0 0 0 0 0 0 0 0 0 0 0 0 0 0 0 4 89 79 100 70 7 5 76 99 3 0 0 0 0
0 0 0 0 0 0 0 0 0 0 0 0 0 0 0 0 0 0 0 0 0 0 0 0 0 0 0 0 0 0 0 0 99 29 99 20 97 100 99 20 0 0 0 0 0
0 0 0 0 0 0 0 0 0 0 0 0 0 0 0 0 0 0 0 0 0 0 0 0 0 0 0 0 0 0 0 0 99 100 6 100 100 100 0 0 0 0 0 0 0
0 0 0 0 0 0 0 0 0 0 0 0 0 0 0 0 0 0 0 0 0 0 0 0 0 0 0 0 0 0 0 0 99 62 100 67 100 98 8 0 0 0 0 0 0
0 0 0 0 0 0 0 0 0 0 0 0 0 0 0 0 0 0 0 0 0 0 0 0 0 0 0 0 0 0 0 0 67 74 100 88 77 4 1 0 0 0 0 0 0
0 0 0 0 0 0 0 0 0 0 0 5 0 0 0 0 0 0 0 0 0 0 0 0 0 0 0 0 0 0 0 0 21 45 29 98 4 5 5 0 0 0 0 0 0
0 0 0 0 0 0 0 0 0 0 0 2 0 0 0 0 0 0 0 0 0 0 0 0 0 0 0 5 0 0 0 0 56 100 44 100 98 100 5 4 5 4 2 0 0
0 0 0 0 0 0 0 0 0 0 0 0 0 42 2 0 0 0 0 0 0 0 0 0 0 0 0 1 1 0 0 0 5 100 84 90 99 48 26 2 96 30 5 4 0
0 0 0 0 0 0 0 0 0 0 12 21 1 0 5 4 0 0 0 0 0 0 0 0 0 0 0 0 3 4 0 0 2 16 5 8 61 2 78 42 5 34 77 3 0
0 0 0 0 0 0 0 0 0 2 5 28 0 0 0 0 4 0 0 0 0 0 0 0 0 0 0 0 0 5 0 0 0 0 0 2 3 0 3 100 88 9 75 96 95
0 0 0 0 0 0 0 0 0 0 0 0 0 0 0 0 2 0 0 0 0 0 0 0 0 0 0 0 0 0 5 1 0 0 0 0 0 0 0 5 3 90 100 100 100
0 0 0 0 0 0 0 0 0 0 2 0 0 0 0 0 0 1 0 0 0 0 0 0 0 0 0 0 0 0 1 0 0 0 0 0 0 0 51 32 8 24 100 90 100
0 4 0 0 0 2 0 0 0 0 0 2 0 3 4 0 0 0 0 0 0 0 0 0 0 0 0 0 0 0 0 0 0 0 0 3 0 0 98 57 78 2 63 81 100
5 15 0 0 11 81 10 5 1 1 0 0 2 0 0 0 0 0 0 0 0 0 0 0 0 0 0 0 0 0 0 0 0 0 0 0 4 0 79 63 2 42 100 99 38
22 4 0 5 6 7 66 5 5 11 62 7 3 5 1 0 0 0 0 0 0 1 0 0 0 0 0 0 0 0 0 0 0 0 0 0 28 100 1 1 4 54 99 29 9
27 34 0 0 97 86 66 7 14 100 100 100 2 16 55 3 2 0 0 0 0 0 1 85 0 0 2 0 0 0 0 0 0 0 0 0 0 42 33 41 100 84 78 95 100
84 47 73 52 78 90 100 100 97 22 1 98 12 77 100 37 5 0 1 0 0 0 4 15 0 0 0 4 0 5 0 0 0 0 0 0 0 0 5 64 100 74 100 88 88
90 87 7 6 5 30 98 100 100 6 98 5 45 100 100 97 100 36 10 0 0 0 0 10 0 0 0 2 5 4 0 0 0 0 0 0 0 0 0 64 100 99 5 15 63
100 93 100 37 5 5 5 93 98 99 100 100 99 44 100 100 53 90 17 32 0 5 69 37 4 13 0 5 31 1 1 0 0 0 0 0 0 0 0 0 16 97 100 29 100